全球星 M075星 (GLOBALSTAR M075)

导读 | 豆包AI

GLOBALSTAR M075(全球星M075星)是全球星星座的成员卫星,由美国全球星公司运营,于2010年10月19日发射,国际标识为2010-054E。该卫星运行在近地轨道,近地点约1413千米,远地点约1414千米,轨道倾角52度,周期约114分钟,服务覆盖南北纬70度以内区域,为全球卫星通信系统提供支撑,目前已退役。

基本信息
目录编号:
37192
目录名称:
GLOBALSTAR M075
国际标识:
2010-054E
轨道中心:
EARTH
卫星名称:
全球星 M075星
卫星全名:
全球星 M075星 (GLOBALSTAR M075)
卫星状态:
在轨 (已飞行5625 天)
发射日期:
2010-10-19 UTC
国别 :
(GLOB)
星等 :
--
轨道信息
数据来源 国际轨道数据 AOE轨道数据
星历时间 2026-03-13T17:47:58+0800
17小时前
查看轨道信息
2026-03-13T06:00:00+0800
1天前
查看轨道信息
半长轴 7791.747km 7791.748km
偏心率 0.0000364 0.0000283
轨道倾角 51.994° 51.994°
近地点辐角 96.217° 90.671°
升交点赤经 81.817° 83.313°
平近点角 50.647° 340.976°
近地点 1413.326km 1413.39km
远地点 1413.894km 1413.832km
周期 114.081分钟 114.081分钟
每日圈数 12.622649 12.622647
详细信息
固有亮度:
5
最大亮度:
7.2
平衡模式:
三轴稳定
覆盖范围:
全球
运营商:
全球星公司
运营商所在国:
美国
使用方式:
暂无
卫星简介
全球星星座由48颗卫星加8颗备份星组成。这些卫星分布在8个倾角为52度的圆形轨道平面上,每个轨道平面6颗卫星,另有1 颗备用星。轨道高度约为1414km,传输时延和处理时延小于300ms,整个系统的覆盖区为南北纬70度以内的地区。该卫星已退役。
2D轨道图
3D轨道图
轨道高度分析图
轨道倾角分析图
轨道综合分析图
查看轨道综合分析图